GFSNE_sfc_dewp_000.txt.gz
Dewpoint
62 64 62 56 55 56 57 58 56 51 49 52 52 56 56 56 60 60 61 63 62 62 62 61 61 62 61 61 62 63 63 63 65 67 69 70 73 74
56 61 63 58 58 57 57 57 56 55 52 52 52 56 58 58 61 61 61 64 63 63 62 61 61 62 62 62 62 62 62 63 63 65 67 67 69 71
62 63 64 66 59 56 55 55 55 55 54 53 54 57 61 62 61 62 60 60 58 62 62 61 61 61 61 61 61 61 61 61 62 63 65 66 67 69
62 63 64 60 64 65 59 63 59 60 57 60 60 57 61 61 61 63 60 56 57 59 61 60 59 59 59 59 59 59 59 59 60 61 62 64 66 67
62 63 63 63 63 60 61 58 56 57 58 55 57 56 55 56 58 63 61 61 56 59 59 59 59 59 59 58 58 57 56 56 57 58 60 61 64 66
63 63 64 64 64 63 61 63 62 59 60 55 56 53 55 59 58 55 54 52 51 51 56 56 57 57 60 58 58 58 56 54 55 55 57 58 60 63
64 64 64 65 64 63 59 62 63 59 56 54 54 52 53 54 57 53 52 53 57 54 52 51 49 52 53 55 56 59 58 57 56 55 55 56 57 59
64 65 67 66 65 63 63 62 62 61 60 54 53 53 60 61 57 54 54 53 52 54 55 51 54 54 53 52 55 57 56 57 56 57 56 55 56 57
66 67 65 63 65 64 63 61 61 60 60 61 60 60 62 60 60 61 58 56 53 52 56 54 54 52 52 50 54 57 57 56 55 55 56 56 56 56
66 64 65 64 64 64 63 61 60 60 61 61 61 59 60 59 58 57 58 57 57 55 58 53 51 49 51 53 54 55 55 54 55 55 55 55 55 54
65 64 64 65 61 57 60 60 60 60 58 57 56 55 54 55 55 54 52 52 52 52 54 51 49 50 52 53 54 55 55 54 54 54 55 54 54 53
65 64 59 61 55 55 59 59 58 57 57 56 56 56 56 55 56 57 54 53 51 46 50 50 50 53 52 53 54 55 56 56 53 53 54 54 53 58
62 66 62 54 53 52 52 58 56 55 54 54 51 47 47 50 49 51 53 48 45 44 48 53 56 54 53 53 54 55 57 58 59 59 52 53 52 56
64 60 57 50 49 51 52 52 51 50 50 49 47 44 45 46 45 46 51 51 47 53 57 61 57 54 52 52 53 57 60 61 63 63 60 55 52 53
59 52 49 48 47 47 51 50 49 50 49 47 44 44 45 44 48 50 49 54 55 56 55 61 58 55 54 53 54 57 57 60 62 68 67 60 58 58
51 52 52 51 50 51 51 50 50 49 47 45 44 44 44 42 40 37 34 36 46 50 56 57 57 56 55 55 58 58 60 59 62 66 67 66 64 62
54 53 52 51 51 51 51 50 49 47 45 44 43 42 40 37 35 34 33 42 47 50 50 51 56 57 56 57 56 56 56 57 62 64 64 63 64 65
48 49 48 49 48 48 47 45 44 43 43 42 40 39 36 35 33 33 35 43 47 50 49 49 58 54 54 56 56 55 55 55 56 63 63 61 61 64
47 48 47 47 46 45 43 41 40 40 45 39 38 37 34 34 33 33 35 41 45 48 48 49 57 53 49 49 55 54 54 54 55 57 64 63 63 63
47 47 46 45 44 42 42 40 39 38 35 34 34 34 33 33 32 33 35 40 44 47 50 50 50 51 49 50 51 54 51 53 54 56 60 65 66 61
45 43 43 42 42 42 42 41 39 33 30 33 33 32 31 31 32 33 33 39 43 46 47 47 50 52 55 54 51 51 53 51 52 53 55 58 63 62
44 43 43 43 44 44 41 37 32 30 33 32 31 31 31 31 30 31 31 33 41 44 46 47 52 51 53 51 50 50 51 52 52 53 53 54 51 55
45 44 44 43 43 40 35 31 27 30 31 31 30 30 31 29 31 30 28 29 33 40 44 46 47 49 51 50 49 50 50 49 50 50 52 52 53 53

GFSNE_sfc_dewp_003.txt.gz
Dewpoint
65 68 63 58 56 55 56 64 60 55 55 55 51 61 56 57 60 59 61 64 65 63 62 62 62 62 62 62 62 62 63 63 62 63 64 65 67 68
58 66 67 59 58 56 57 56 55 53 51 52 53 58 59 57 60 60 60 65 64 63 63 62 62 62 62 62 62 62 62 62 63 63 63 63 64 66
67 64 66 68 60 56 55 56 54 55 53 56 56 60 67 65 63 64 61 63 59 63 63 63 62 61 61 61 61 61 61 61 62 62 62 63 63 64
62 66 65 60 69 69 59 67 64 63 57 62 61 58 63 65 66 66 60 55 58 58 63 62 61 60 60 60 59 59 59 59 60 60 61 61 62 63
62 65 64 66 68 63 66 62 60 63 61 55 56 58 58 60 60 64 65 63 60 60 59 60 60 60 59 58 57 57 56 56 57 57 58 59 60 61
64 65 65 66 68 68 67 68 66 64 61 57 55 56 57 58 58 55 56 58 57 54 57 56 57 59 60 58 58 58 56 54 54 55 55 56 58 59
63 63 65 67 66 66 66 63 67 63 58 57 56 55 56 54 57 57 56 55 57 55 53 54 54 54 54 56 59 61 58 57 55 54 54 54 55 56
66 65 68 66 64 64 64 64 64 63 63 60 56 56 61 61 62 61 60 53 51 55 56 54 54 54 55 56 58 58 57 57 56 56 55 54 54 55
67 66 65 61 64 63 64 63 63 62 61 62 62 62 62 61 62 61 60 56 54 53 56 53 54 54 56 54 56 57 56 55 55 55 55 55 54 54
65 65 66 66 66 65 64 64 64 64 64 61 62 63 62 60 60 58 59 59 56 54 58 53 54 53 55 55 55 56 54 54 54 54 54 53 53 52
65 65 67 65 63 60 62 61 63 64 60 60 58 55 54 54 55 54 51 49 47 49 52 51 50 49 50 52 54 55 54 54 54 54 54 54 52 52
69 68 61 61 58 57 62 61 61 61 59 58 59 57 56 57 56 57 54 52 48 47 48 45 45 47 51 54 55 55 56 55 53 53 53 53 52 55
60 65 60 56 55 54 53 59 59 57 59 55 52 52 53 52 46 51 57 48 44 43 46 44 46 53 58 55 53 54 56 54 56 56 54 52 51 54
60 59 67 55 54 53 53 53 51 51 51 49 49 50 48 44 45 48 56 53 50 52 51 54 57 59 57 53 52 54 55 58 58 59 61 59 52 51
65 56 54 52 50 49 50 52 51 50 49 51 49 47 43 44 53 51 53 54 52 52 53 60 58 58 58 55 54 54 56 57 60 60 61 64 60 54
54 55 54 53 51 52 52 51 51 51 50 49 45 44 44 42 41 38 35 33 33 42 55 58 56 58 57 56 55 54 56 54 56 58 60 66 61 58
57 56 54 54 52 54 54 54 53 50 48 45 44 42 40 39 37 35 33 34 36 43 48 52 54 59 60 56 53 54 55 54 54 56 57 63 64 64
54 52 50 49 49 48 51 50 48 46 45 44 42 40 38 37 35 34 34 35 37 42 46 51 52 52 52 53 55 54 54 53 53 55 56 60 61 64
49 47 48 48 48 47 45 44 42 42 48 40 39 38 36 34 34 33 34 35 38 43 48 54 50 52 48 47 52 54 52 52 52 53 54 56 61 62
47 47 47 46 45 44 43 42 41 39 38 36 35 35 34 33 32 33 33 35 35 43 47 47 46 51 49 49 51 53 50 52 51 51 52 54 57 60
46 46 45 44 43 43 43 43 42 38 34 32 35 33 32 32 32 32 32 37 37 39 44 50 49 51 53 54 50 49 51 50 51 51 52 51 54 62
46 46 45 45 45 45 44 41 38 33 32 33 32 32 32 31 30 30 30 30 32 34 42 47 50 50 51 51 50 50 50 51 51 51 51 52 51 49
47 47 46 47 46 45 42 37 31 28 30 31 31 31 32 30 31 30 29 27 27 30 38 42 45 51 48 49 49 51 49 49 49 49 49 50 51 50

GFSNE_sfc_dewp_006.txt.gz
Dewpoint
69 68 67 65 66 65 64 64 60 58 57 60 59 63 60 62 64 63 64 66 66 65 63 63 62 63 63 63 63 63 63 63 63 63 63 62 62 62
67 68 68 66 66 65 61 64 62 60 57 60 61 63 64 63 64 64 64 66 66 65 63 62 62 62 63 63 63 63 63 63 63 63 63 63 64 62
68 68 67 68 67 65 66 64 62 62 60 61 62 63 63 64 63 64 65 64 64 64 63 62 62 62 62 62 62 62 62 62 62 62 62 63 63 63
68 68 67 64 68 67 67 66 65 65 63 62 63 63 63 65 65 65 63 59 61 60 63 63 62 62 61 61 60 60 60 60 60 60 61 62 62 62
66 67 66 67 67 68 67 67 66 65 64 62 61 62 62 61 61 62 62 64 63 63 60 60 61 60 60 59 58 57 56 56 57 57 58 59 60 61
68 68 67 66 67 67 66 67 67 66 64 63 62 62 62 61 62 60 59 62 62 58 60 59 60 61 60 59 58 58 56 54 54 54 55 56 57 58
66 67 67 67 66 67 67 66 67 65 63 60 59 59 57 60 59 60 59 59 59 59 59 58 56 58 58 59 61 61 59 57 55 54 54 54 54 55
66 67 68 66 65 64 64 64 66 64 62 60 60 59 58 61 62 60 59 57 55 59 59 55 57 56 55 54 57 58 57 57 57 56 55 54 54 54
66 68 65 64 66 66 64 63 63 62 61 60 59 60 61 62 61 60 59 58 56 56 56 53 54 55 56 54 57 58 57 56 55 55 55 54 54 53
66 67 65 66 67 67 66 66 64 63 64 64 62 61 63 64 62 59 58 57 56 56 56 53 53 51 52 54 54 54 55 54 54 53 54 53 52 51
66 66 66 68 64 61 64 62 62 64 62 60 62 60 56 54 56 58 54 53 51 52 55 51 51 48 46 46 46 55 55 54 53 53 54 53 52 51
67 67 62 64 60 58 63 63 63 63 63 62 61 59 57 57 56 57 55 53 52 52 53 49 45 43 39 46 54 55 55 53 52 52 53 53 52 53
63 65 65 58 56 55 55 62 59 56 58 59 58 55 56 57 56 58 59 57 51 47 49 48 44 42 47 52 54 54 55 54 55 56 54 53 51 52
64 66 62 54 55 55 53 53 52 53 55 55 54 53 54 53 53 54 55 55 54 52 53 54 48 50 55 52 51 53 54 54 54 57 58 55 54 54
65 57 55 52 54 51 52 52 52 54 53 52 52 54 52 53 55 53 54 54 52 52 47 57 57 55 54 53 54 55 54 54 56 57 55 55 56 57
56 56 55 55 54 55 55 51 53 55 54 55 53 53 54 51 49 50 47 46 42 39 48 57 56 56 53 55 55 53 54 53 55 55 54 54 55 57
59 59 56 57 56 55 55 56 55 55 55 55 53 51 49 48 48 48 46 41 41 42 44 51 57 57 56 55 52 52 53 53 53 53 52 52 55 57
59 61 60 57 55 55 55 54 55 55 55 52 51 49 47 47 46 45 44 45 43 44 46 53 51 50 51 51 53 53 53 52 52 52 52 52 51 54
59 58 54 56 56 55 54 52 51 53 53 50 49 48 46 45 44 43 43 44 43 42 42 52 48 49 49 48 50 53 52 51 51 50 51 51 50 52
54 53 53 55 55 53 52 51 51 50 48 47 45 43 43 45 43 42 42 42 41 40 40 52 50 50 49 49 50 52 49 51 50 49 49 50 51 52
51 52 53 53 53 53 53 53 51 48 45 43 42 42 44 41 41 40 39 40 40 41 46 48 52 51 52 52 49 49 50 49 50 50 50 48 47 49
54 53 53 53 54 53 53 52 49 46 44 44 44 44 43 42 37 37 37 36 39 40 44 48 49 52 51 49 48 49 50 49 50 49 50 49 47 44
56 55 55 55 54 53 52 48 43 39 40 42 41 41 42 39 41 40 35 34 34 35 39 36 48 50 48 50 49 48 47 47 48 46 47 48 49 48

GFSNE_sfc_dewp_009.txt.gz
Dewpoint
61 62 62 61 62 62 61 58 55 53 53 55 53 59 60 60 61 61 58 63 65 65 64 62 63 63 64 64 63 63 63 63 64 63 63 62 61 61
64 63 62 62 61 62 60 59 58 56 54 56 57 58 61 60 61 62 60 66 65 65 64 63 62 63 63 64 64 63 63 63 63 64 64 64 64 63
63 62 63 63 62 60 62 60 59 59 56 57 57 59 58 57 59 61 62 62 62 64 64 63 62 62 62 63 63 63 63 63 63 63 63 64 64 64
63 62 61 61 63 62 63 63 62 61 60 57 60 59 59 58 60 61 63 62 60 62 63 63 62 62 61 61 61 61 60 61 61 61 61 62 62 63
65 64 63 62 62 63 64 64 63 63 61 60 59 61 61 60 58 59 60 59 61 63 61 61 60 61 61 60 60 58 57 56 57 58 59 59 60 61
64 64 63 63 63 64 63 63 63 63 62 61 59 60 61 59 60 58 57 58 58 60 61 60 61 61 61 60 59 59 57 55 54 55 55 56 57 58
64 65 64 65 66 64 65 64 64 63 62 60 58 57 57 56 58 57 58 58 58 58 57 57 55 55 55 58 61 62 60 58 56 55 54 54 54 55
64 65 62 66 65 64 64 64 65 63 59 58 57 57 57 58 58 58 58 56 55 57 56 52 52 53 52 53 57 58 57 57 56 56 55 54 54 54
65 66 64 65 65 64 63 63 63 63 61 59 57 57 57 58 58 56 56 56 55 54 53 52 53 53 54 54 56 56 56 56 54 54 55 54 54 53
66 66 64 62 64 63 63 62 63 62 61 62 60 59 60 60 60 58 57 54 54 55 55 52 53 51 50 50 53 53 52 52 54 54 54 53 52 51
65 65 63 63 63 61 62 61 60 60 61 60 61 61 59 58 58 55 53 51 51 50 52 51 50 46 44 41 40 49 51 54 54 54 54 53 51 51
63 63 61 62 61 59 60 59 58 60 57 57 58 57 56 55 56 54 53 52 50 50 52 45 43 41 37 39 45 47 51 53 52 52 52 52 51 53
62 62 63 59 57 57 58 59 58 52 53 53 54 54 53 54 56 56 57 55 52 51 48 46 43 43 43 43 51 52 51 52 54 54 52 51 50 52
61 61 57 55 55 57 54 52 51 52 52 52 52 51 51 49 49 48 49 53 52 48 49 51 49 47 47 49 49 51 51 52 54 53 54 54 52 52
61 59 54 54 54 53 53 52 52 50 50 50 50 51 48 48 47 45 44 42 41 39 41 43 49 46 52 52 51 52 51 52 53 54 54 54 53 52
56 56 55 53 52 53 53 52 50 51 52 51 51 49 49 43 43 44 41 39 37 36 38 41 49 55 51 51 52 52 51 51 52 53 53 53 53 53
56 54 53 53 52 52 53 53 52 52 53 52 51 46 42 42 42 41 39 36 36 38 39 44 51 52 54 53 51 50 50 51 52 52 51 51 51 53
57 56 54 55 55 55 54 53 55 55 54 46 44 42 41 42 39 39 38 38 39 38 41 42 49 47 48 49 52 50 51 51 52 52 51 49 49 51
56 56 54 53 52 52 54 53 50 50 46 44 43 42 39 38 40 38 37 38 37 37 37 40 46 45 45 45 47 52 52 52 51 49 50 49 48 48
53 51 51 51 49 47 46 45 45 43 41 37 34 34 34 38 37 36 36 36 36 36 37 42 47 47 46 45 48 50 49 50 49 48 47 48 47 49
49 49 51 48 47 48 47 47 43 41 36 34 33 37 39 36 34 34 36 40 39 36 37 42 44 51 49 49 47 46 48 48 48 48 47 45 45 45
52 51 50 49 48 47 47 44 42 40 38 38 38 38 36 36 33 34 36 34 34 36 36 43 42 48 49 45 45 45 45 45 47 47 48 46 44 42
51 50 50 49 48 47 46 43 38 36 34 35 35 33 34 34 36 36 33 34 35 34 33 32 36 47 45 45 45 44 44 44 44 43 44 45 45 45

GFSNE_sfc_dewp_012.txt.gz
Dewpoint
62 61 62 60 62 61 60 56 52 51 51 54 53 58 60 60 60 62 62 62 65 64 64 63 63 64 64 64 64 64 64 64 64 64 64 64 62 61
63 61 62 61 60 62 59 59 56 53 51 55 55 57 58 59 61 63 60 64 64 64 64 63 63 63 64 64 64 64 64 64 64 64 64 64 64 63
64 62 62 61 60 61 61 60 59 58 54 55 58 57 59 57 57 59 61 61 62 64 64 64 63 63 63 63 63 64 64 64 63 63 64 64 65 65
62 62 61 62 63 61 61 62 61 60 58 56 58 59 59 59 59 60 60 61 61 62 62 62 62 62 62 62 62 62 61 61 62 62 63 63 63 63
63 62 61 61 60 61 62 61 62 62 61 59 58 60 60 60 59 59 58 59 59 63 62 61 61 60 60 60 59 58 57 57 58 58 59 60 61 61
64 63 63 63 63 62 63 63 63 62 62 61 61 60 59 59 59 58 58 57 57 58 61 60 61 61 60 59 60 60 57 56 55 55 56 56 57 58
64 64 64 65 65 63 64 62 61 62 62 61 59 57 56 56 56 56 57 57 58 58 57 57 55 54 54 57 58 61 60 58 56 55 55 54 55 55
63 63 64 66 65 64 64 63 63 62 61 60 57 56 56 56 56 56 56 55 53 57 55 54 51 52 53 53 56 58 57 56 56 55 54 53 54 54
63 64 64 65 65 64 63 63 62 62 62 60 58 57 56 56 56 56 55 55 54 56 53 51 52 52 53 54 57 56 55 53 53 52 52 53 53 53
64 64 65 65 64 63 63 63 62 62 63 62 60 59 58 59 58 58 57 55 53 54 54 51 52 52 51 50 53 54 52 51 51 52 53 53 52 51
64 65 66 65 61 60 63 60 60 61 61 59 59 59 59 58 59 57 55 52 51 50 51 51 51 48 45 43 41 49 50 49 52 52 53 53 51 51
64 64 61 62 59 58 62 59 59 59 58 56 56 56 57 56 56 56 54 51 49 49 52 49 45 43 40 38 38 42 46 51 51 51 52 52 51 53
61 63 63 58 56 55 57 59 59 57 55 52 52 53 53 52 52 54 54 53 51 50 53 47 44 43 42 42 45 48 51 52 52 52 51 51 50 51
62 62 60 54 52 55 57 56 52 52 51 51 50 50 50 48 46 47 47 50 53 51 49 48 47 45 43 41 43 49 50 51 52 52 53 52 51 51
63 59 52 50 52 54 53 52 52 50 49 49 49 49 49 48 45 43 43 41 39 38 40 40 45 41 45 47 49 49 49 51 52 52 53 53 51 50
58 55 55 55 53 53 52 52 51 50 50 50 49 50 49 42 41 42 39 38 35 34 37 40 43 47 50 50 49 49 49 48 50 51 51 51 51 50
54 53 52 52 51 51 51 51 50 50 51 50 50 48 41 40 40 39 39 36 35 36 38 38 41 46 50 50 48 48 49 49 50 50 52 50 48 49
54 52 51 51 51 51 51 51 52 53 51 51 46 42 39 40 38 38 37 36 35 36 36 37 40 45 46 47 51 48 48 49 50 51 50 47 46 47
55 54 54 53 53 53 53 52 52 51 48 43 42 40 37 36 37 37 35 35 34 35 34 36 39 43 42 43 46 51 48 49 49 48 46 47 46 44
54 55 54 52 51 49 49 46 45 41 38 35 34 33 33 34 37 34 34 33 35 35 35 35 42 44 44 44 44 47 48 47 47 45 45 45 45 46
51 51 50 49 48 46 45 44 42 40 37 34 32 33 37 38 34 33 33 38 38 34 34 34 36 46 47 46 44 44 46 47 46 46 45 44 41 42
50 50 49 47 47 46 45 43 41 38 37 36 35 35 36 36 32 33 35 34 33 35 35 35 35 42 45 43 42 42 43 44 45 46 45 43 41 38
51 49 48 47 47 47 45 43 39 37 34 33 35 35 33 32 33 35 33 33 35 35 32 32 33 43 43 42 43 41 41 42 42 41 41 43 41 41

GFSNE_sfc_dewp_015.txt.gz
Dewpoint
62 62 61 60 61 59 58 54 51 50 51 53 54 56 60 59 59 60 64 63 65 64 63 63 63 63 64 65 65 65 65 65 65 64 64 64 62 61
62 61 60 60 60 60 60 60 55 53 51 53 55 56 57 58 60 62 60 64 64 64 64 63 63 64 64 64 65 65 64 65 65 65 65 64 65 64
63 61 60 61 60 60 60 59 58 55 53 54 57 56 58 59 57 58 59 59 60 63 64 63 63 63 64 64 64 64 64 64 64 64 64 65 65 65
63 62 62 61 61 61 60 60 59 59 57 55 57 59 59 59 59 59 60 60 61 62 62 62 61 61 62 62 62 62 61 61 62 63 63 64 64 64
61 62 62 61 60 61 61 61 60 61 59 58 58 59 59 60 59 58 58 58 59 62 61 60 60 60 60 59 58 58 57 57 58 59 60 60 61 61
64 62 61 61 61 60 60 61 61 60 60 59 60 59 59 59 58 57 57 57 57 58 60 60 60 60 59 57 57 58 56 55 55 55 56 56 57 58
64 64 63 63 63 62 62 61 61 60 60 60 60 58 57 57 55 56 56 56 57 58 57 56 55 52 52 55 56 58 57 57 56 55 55 54 54 55
64 64 63 65 65 63 63 63 62 60 60 59 59 57 56 56 56 56 55 54 54 56 55 55 53 51 51 53 56 58 58 56 55 55 54 52 52 52
65 65 63 64 65 65 63 63 62 62 62 60 58 58 57 58 56 54 54 54 54 56 54 52 52 51 52 53 56 57 56 54 53 52 52 52 52 52
65 65 63 63 64 64 63 62 61 61 62 62 60 60 60 59 57 57 56 55 54 54 53 51 51 51 52 52 54 55 54 53 52 51 51 51 51 50
66 64 63 63 62 61 62 61 60 61 61 60 59 58 58 58 58 58 57 54 51 51 51 51 51 50 48 45 44 50 50 50 49 50 51 52 51 50
62 63 62 64 58 58 63 60 59 60 60 57 56 53 54 54 56 56 55 52 49 49 51 50 47 44 40 41 39 39 40 47 48 49 51 52 50 51
62 62 63 58 55 54 57 61 60 58 57 53 51 51 51 51 51 52 53 52 50 49 52 49 45 43 41 40 42 44 45 47 51 51 51 50 49 51
61 63 63 56 52 52 54 55 54 54 52 50 49 49 49 48 46 47 45 49 52 51 50 48 46 43 41 40 40 45 49 50 50 51 52 51 51 51
63 60 53 50 50 52 55 54 52 51 50 49 48 49 50 48 45 42 42 40 38 38 40 40 44 41 43 42 44 47 47 48 49 50 51 51 51 51
57 55 55 54 54 54 53 52 51 50 49 49 48 49 49 44 40 41 38 37 35 34 35 38 39 42 43 46 46 47 48 46 49 49 50 51 50 50
55 54 54 53 52 51 50 51 50 50 50 49 49 49 46 40 40 39 38 36 34 34 35 36 36 40 43 45 46 46 47 47 48 49 50 47 47 47
54 53 53 52 52 51 50 50 50 51 49 49 49 47 41 39 39 36 37 35 34 33 34 35 35 38 44 45 49 46 45 46 48 48 47 45 43 43
56 53 53 52 51 51 51 51 51 51 51 50 44 41 40 37 36 36 34 34 32 33 34 34 35 39 40 37 40 51 46 45 45 44 43 43 41 41
54 54 53 52 52 52 51 51 48 46 44 41 36 34 33 32 36 33 33 32 33 34 33 34 35 37 40 39 42 46 48 45 43 43 43 42 42 44
54 54 54 53 51 49 48 46 43 40 37 35 34 32 35 38 33 33 32 38 38 33 33 33 33 41 42 44 42 42 44 46 46 44 44 43 41 40
53 53 51 50 48 46 45 43 42 40 37 35 34 33 34 35 33 31 33 33 32 34 35 34 34 41 43 42 40 40 41 43 44 46 46 45 42 39
51 51 50 48 47 46 44 43 42 39 38 35 34 35 36 33 33 34 33 33 34 34 31 30 33 39 42 41 41 40 39 41 42 41 41 45 44 42

GFSNE_sfc_dewp_021.txt.gz
Dewpoint
68 68 65 64 63 61 60 60 56 53 53 58 56 62 63 64 64 62 63 65 66 66 65 64 64 64 65 65 65 66 66 66 66 66 66 66 65 63
65 68 67 64 64 63 61 60 59 57 54 57 57 61 63 62 63 65 64 65 64 65 65 64 64 64 65 65 65 65 66 66 66 66 66 66 66 66
68 68 68 68 63 63 63 63 62 60 57 58 60 63 65 65 63 65 63 64 61 64 64 64 63 64 64 65 65 64 65 65 65 65 65 66 66 66
68 67 67 65 67 67 63 66 63 64 60 63 62 61 65 66 66 67 63 59 61 62 63 63 63 63 63 62 62 61 61 61 61 61 62 63 63 64
69 68 67 67 66 63 64 63 62 64 64 61 60 62 62 63 64 65 65 64 61 63 62 61 61 62 61 60 59 57 56 55 56 58 59 60 60 61
70 68 67 66 67 67 66 66 65 64 64 62 60 60 62 64 63 61 60 61 59 57 60 60 61 62 60 58 58 58 57 56 55 56 56 57 58 58
70 69 68 67 66 66 65 66 67 64 62 61 60 60 59 60 61 59 59 59 60 60 59 59 58 58 58 58 57 58 58 57 56 55 55 54 54 54
71 70 69 67 66 64 63 64 66 66 65 61 60 60 65 64 61 60 59 57 55 61 60 56 60 57 57 58 60 58 58 57 57 56 54 53 53 53
71 70 69 67 66 67 63 62 63 63 64 67 65 64 64 65 65 64 63 60 58 59 61 56 57 57 55 53 58 58 57 57 56 55 54 53 52 51
72 71 70 69 69 67 67 66 65 66 66 63 66 67 66 66 66 64 66 64 62 60 62 54 54 54 54 51 54 56 55 53 54 53 52 51 50 49
72 71 70 70 65 62 67 67 67 67 63 61 62 61 60 60 62 62 60 58 55 54 58 54 51 51 49 48 46 52 51 50 50 49 50 50 49 49
71 71 63 69 59 59 66 67 66 66 65 64 63 58 60 59 60 63 57 52 50 50 55 49 47 46 41 40 42 41 41 47 48 49 50 50 50 50
69 69 71 59 56 56 59 68 65 66 64 64 61 60 59 57 54 57 59 53 50 48 52 50 45 43 40 39 39 40 39 41 43 45 49 50 49 50
69 69 67 56 54 54 58 59 56 60 62 60 59 57 54 52 52 53 57 55 54 54 53 56 44 39 38 36 34 36 38 40 45 44 44 48 48 49
69 65 59 54 54 54 56 55 56 62 60 59 57 55 53 52 56 55 54 55 55 52 47 53 45 44 41 37 35 37 38 38 41 43 45 47 47 46
62 61 58 59 58 60 58 58 62 62 60 58 56 54 54 53 52 51 49 48 45 42 49 50 51 49 39 37 37 39 38 36 39 43 47 47 44 42
60 61 61 62 61 61 61 61 61 60 58 57 54 52 52 52 51 51 49 47 42 41 37 37 47 51 45 47 39 36 35 37 42 45 48 42 41 41
61 61 61 62 61 60 59 59 59 58 57 55 53 53 52 52 51 50 47 43 42 38 37 36 38 38 36 43 48 37 35 36 42 45 45 39 38 40
63 62 61 60 60 60 59 57 57 57 59 54 54 54 53 53 49 46 44 42 38 37 36 38 38 37 34 31 35 49 40 40 42 40 39 38 38 40
63 61 61 61 61 60 58 57 57 56 55 54 55 54 53 51 46 43 41 38 37 36 36 37 38 37 35 34 36 40 47 47 41 40 38 37 39 44
62 62 62 63 62 60 59 58 56 55 55 56 54 52 50 45 43 40 37 39 38 36 36 36 37 40 41 44 40 35 38 47 47 44 42 39 38 37
65 63 63 62 61 60 58 57 56 55 55 54 50 48 45 43 40 38 36 34 35 35 35 36 39 39 39 37 35 39 37 39 41 47 48 46 39 36
64 64 62 61 61 59 57 56 54 53 52 49 47 46 44 40 40 37 35 33 32 33 35 35 34 35 36 36 39 36 40 38 34 33 33 44 46 45

GFSNE_sfc_dewp_024.txt.gz
Dewpoint
70 69 64 59 61 60 59 57 55 53 53 59 55 60 58 58 63 62 62 68 67 66 66 65 65 65 65 66 66 66 67 67 67 67 67 67 66 65
67 69 68 60 62 61 59 58 56 55 53 54 56 59 59 58 63 62 62 66 66 65 65 65 65 65 65 65 66 66 66 66 67 67 67 67 67 66
70 69 69 68 60 59 60 59 58 57 55 54 57 62 66 65 62 62 63 63 61 65 65 64 64 64 64 65 65 64 64 64 65 65 65 65 65 66
71 70 69 65 68 68 61 67 63 63 58 63 62 59 66 66 67 67 63 58 59 64 65 63 63 63 64 64 63 63 62 61 61 61 61 62 63 63
72 71 70 68 68 63 64 62 61 62 63 58 58 60 60 62 65 67 66 66 61 64 62 63 63 63 62 61 61 59 56 55 56 58 58 60 60 61
73 72 71 69 68 68 65 66 64 61 64 60 58 57 59 63 62 58 60 62 60 58 61 60 63 63 62 62 60 59 57 56 56 56 57 58 58 58
74 73 72 70 67 67 63 68 69 64 58 59 58 57 57 58 61 58 57 57 60 61 59 58 57 58 59 60 60 61 60 58 57 56 56 56 55 55
74 74 73 69 68 64 64 65 68 68 67 58 57 59 64 62 61 59 57 56 55 62 61 58 57 56 57 56 60 58 58 57 57 57 56 55 54 54
76 74 72 69 69 69 65 63 64 63 65 67 66 64 65 66 67 67 64 61 59 60 64 58 57 55 55 53 59 57 58 57 57 56 56 54 53 53
74 74 74 73 71 70 70 66 67 66 66 63 65 67 69 67 68 67 66 65 63 61 63 57 55 51 52 52 55 55 55 54 54 54 53 52 51 49
74 74 74 74 68 63 70 69 69 69 63 62 63 62 62 62 63 62 60 58 56 56 60 55 51 49 50 49 47 51 47 49 50 51 51 51 50 49
75 76 65 71 62 60 70 70 69 68 67 67 67 63 62 62 60 65 60 57 54 49 56 52 47 46 45 44 43 41 41 49 50 49 49 50 50 47
67 69 72 62 56 57 62 70 69 68 65 66 65 64 63 63 60 62 61 55 50 48 54 53 47 45 41 38 37 38 38 39 40 42 47 48 49 50
69 68 71 58 55 55 60 61 58 61 65 63 62 61 60 59 57 57 60 57 55 57 56 58 47 43 39 36 35 36 37 39 40 40 43 45 49 49
68 67 61 55 53 56 58 58 59 66 64 63 63 62 59 57 59 58 59 60 59 57 51 55 48 46 38 36 35 37 37 38 39 39 40 42 44 46
62 64 60 59 59 61 59 61 68 66 67 65 63 61 58 55 54 52 50 51 48 47 54 53 52 49 40 37 37 36 37 36 36 38 41 44 45 44
61 62 62 63 63 63 64 64 67 67 66 66 61 58 55 54 52 52 50 49 47 45 43 45 53 52 46 48 39 39 39 37 36 39 47 42 43 42
63 63 64 65 64 64 64 64 65 64 62 63 60 56 54 53 51 51 50 49 46 44 43 39 37 38 38 46 49 39 38 37 38 43 46 40 38 38
65 64 64 64 64 63 64 64 62 62 65 59 57 56 53 52 52 50 49 47 45 43 40 37 37 38 36 33 35 50 37 38 40 40 39 38 38 38
66 64 64 64 63 63 62 61 60 60 59 58 56 54 53 52 52 50 48 46 44 40 37 37 38 39 38 36 34 36 45 44 39 39 38 38 38 44
65 65 65 64 63 62 62 62 62 59 58 57 54 53 53 51 50 48 46 42 40 38 37 36 40 46 40 39 39 38 38 45 46 43 40 35 34 34
65 65 64 63 62 64 63 61 60 58 58 55 53 53 52 50 47 45 43 39 38 35 35 36 41 40 39 37 35 39 36 39 44 47 48 44 34 31
64 63 63 63 66 66 62 60 58 55 54 54 52 51 50 47 47 43 40 38 34 34 35 35 35 36 36 36 37 36 41 39 35 35 33 49 49 49

GFSNE_sfc_dewp_027.txt.gz
Dewpoint
73 72 66 59 60 60 59 58 57 55 60 61 55 64 58 59 63 62 62 68 68 67 66 66 66 66 66 66 66 66 67 67 67 67 68 68 67 66
70 74 72 61 61 61 59 58 57 55 53 56 58 62 62 57 64 61 61 66 68 66 66 65 65 65 65 66 66 66 66 67 67 67 67 67 67 66
74 74 73 73 60 59 59 59 58 57 55 55 57 66 69 66 64 64 63 66 62 64 65 65 64 64 64 65 65 65 65 64 64 64 63 64 64 65
74 74 71 67 72 72 61 71 64 66 58 68 66 62 68 70 70 71 64 59 62 64 66 64 64 63 64 64 64 64 63 62 61 59 60 60 60 61
75 74 73 72 72 64 66 64 61 64 64 61 59 60 61 64 69 69 70 69 63 65 64 63 63 63 63 62 61 61 58 56 56 58 58 59 60 60
75 75 74 73 72 72 70 70 69 64 64 61 59 57 59 66 63 62 66 65 64 61 63 62 62 63 62 61 61 60 58 56 55 56 57 57 58 58
75 76 75 73 70 70 67 69 69 66 58 59 59 58 57 62 64 63 63 66 68 64 64 64 63 61 62 61 62 62 60 59 58 57 56 56 56 56
76 76 76 71 69 66 65 66 68 70 68 58 57 59 69 65 61 60 61 61 64 67 63 62 64 65 61 61 61 63 61 57 57 57 56 56 56 55
77 76 75 70 71 71 65 64 64 64 66 70 68 67 69 70 70 67 70 65 61 66 69 60 60 57 56 55 60 59 58 56 56 55 55 55 54 53
76 76 76 74 74 73 72 69 68 68 69 65 69 70 70 71 70 70 71 69 65 63 68 59 59 55 54 53 59 58 55 52 53 54 53 52 51 50
76 76 76 76 69 65 73 72 70 69 64 63 64 63 62 64 66 68 62 61 59 59 66 58 55 52 51 51 53 55 53 50 50 52 53 52 50 49
75 76 66 73 63 61 72 73 71 70 69 67 65 63 64 64 61 69 62 61 61 59 60 54 53 50 46 50 48 48 46 50 49 48 50 50 50 47
71 72 73 63 59 58 64 73 71 70 68 69 66 68 67 66 64 64 66 63 57 55 57 56 52 48 47 45 45 45 42 44 43 46 48 47 49 49
71 70 71 59 56 57 61 63 59 65 69 68 66 65 65 63 64 64 66 65 61 61 60 60 52 48 46 43 39 42 43 46 46 46 46 46 47 48
71 67 62 56 56 57 59 59 60 69 68 66 65 64 63 63 66 65 65 64 63 61 56 59 53 56 46 42 37 38 39 40 45 46 46 45 45 47
67 69 62 62 63 66 62 62 69 71 68 65 65 66 68 65 60 59 57 56 53 53 61 61 60 57 45 41 39 40 40 38 42 45 46 45 46 46
68 70 67 66 66 64 66 66 68 68 67 66 67 67 65 59 58 58 55 53 51 49 50 53 59 57 49 55 42 41 42 41 42 45 48 43 45 45
68 67 66 65 64 64 64 65 67 66 67 67 66 65 62 57 57 56 55 53 52 49 48 47 51 46 44 52 52 43 41 40 42 46 49 42 40 43
69 67 66 66 65 64 65 66 65 66 67 67 65 65 61 58 56 55 55 54 51 48 47 46 43 40 37 36 44 50 41 39 41 44 42 40 41 42
69 68 67 66 65 65 66 66 65 65 66 66 65 62 59 57 56 54 53 53 50 48 46 44 42 40 39 39 39 40 47 46 43 41 41 42 42 45
67 68 66 66 66 66 66 65 64 65 65 63 62 60 58 56 55 53 52 48 49 46 44 41 42 48 44 44 36 38 44 45 48 47 45 37 37 37
64 65 67 66 65 65 65 65 64 64 63 62 59 59 57 55 52 52 49 46 45 43 41 39 49 44 42 39 38 45 39 41 46 47 47 45 36 30
64 64 64 65 65 65 65 64 62 61 61 60 58 57 56 53 53 51 47 44 41 40 39 37 37 39 39 38 39 37 47 45 37 38 39 49 49 48

GFSNE_sfc_dewp_030.txt.gz
Dewpoint
75 75 72 69 70 69 68 67 65 62 62 66 64 65 68 66 67 65 65 67 67 66 66 65 66 66 66 66 66 66 66 66 67 67 67 68 67 67
73 73 73 68 68 70 68 68 67 64 62 64 66 65 64 65 67 67 66 67 67 67 66 65 65 65 66 66 66 66 66 66 66 66 66 66 67 66
75 74 72 71 69 69 68 68 67 66 62 64 68 69 68 66 65 66 68 67 65 65 65 65 64 65 65 65 65 65 65 65 64 64 63 63 63 64
74 74 72 70 72 72 71 68 67 68 66 66 67 68 68 69 70 70 66 61 66 65 64 64 64 64 64 64 64 64 64 62 61 59 59 60 61 61
75 74 73 72 71 68 70 70 68 69 70 66 66 69 69 69 69 70 70 69 67 66 63 63 63 63 62 62 62 61 60 58 57 57 58 58 59 60
75 75 74 72 71 71 69 68 70 66 67 68 65 65 68 68 68 66 67 68 67 64 62 62 63 63 62 61 61 60 58 57 55 55 56 57 58 58
74 75 75 73 70 70 68 70 67 70 67 64 64 65 65 66 65 66 66 66 68 67 64 62 62 62 61 62 62 62 61 59 57 56 56 55 55 56
75 74 75 72 70 67 67 66 68 66 66 63 62 62 64 66 67 65 65 65 62 69 66 65 66 66 61 62 63 63 61 60 58 57 56 55 55 55
75 75 74 73 72 71 66 65 65 65 65 66 64 65 67 68 68 68 67 66 64 67 65 63 65 64 62 59 61 61 61 59 56 54 53 52 52 52
75 75 75 74 74 72 70 68 67 67 66 66 67 67 70 71 71 70 69 68 68 67 67 61 64 63 62 59 59 60 57 57 55 52 51 51 50 49
74 75 75 75 70 65 71 69 68 68 64 63 63 65 64 64 68 68 66 65 63 63 66 63 63 62 58 60 58 57 55 54 52 51 52 52 50 49
73 74 67 73 66 61 71 71 69 68 68 66 66 64 64 65 63 68 66 63 62 62 64 62 62 58 54 57 58 52 51 52 50 49 50 51 51 49
71 71 72 63 62 58 64 72 70 70 67 67 66 66 66 66 66 68 68 66 63 62 62 62 59 56 55 53 55 56 53 54 50 49 48 47 49 49
72 71 71 61 59 57 61 65 61 65 70 67 66 65 65 66 66 67 66 67 66 63 58 61 58 55 53 52 50 51 52 52 51 50 51 51 47 48
74 71 59 56 56 58 58 61 61 70 71 68 66 66 66 66 67 66 64 66 64 62 61 61 58 56 54 51 49 47 46 49 51 51 51 51 50 52
67 70 68 65 60 64 63 62 70 72 71 69 68 68 68 67 66 64 62 61 61 59 62 61 60 57 53 52 50 48 49 47 48 50 51 49 49 51
69 73 73 71 72 68 69 67 70 72 71 70 68 67 66 66 64 62 59 58 56 56 56 59 60 58 55 52 50 49 48 49 51 52 49 48 48 49
67 71 72 72 69 70 69 68 69 69 70 69 68 67 65 63 61 61 61 56 56 55 55 56 56 55 53 54 54 48 50 51 51 49 50 48 47 47
70 70 71 71 70 69 69 68 68 69 70 68 66 66 64 63 61 60 57 56 55 54 55 55 54 51 49 46 50 51 49 51 48 47 50 48 46 46
66 70 70 70 70 69 69 68 69 68 68 67 65 64 64 63 61 58 56 55 54 55 54 55 52 50 46 45 47 51 49 49 48 49 48 48 48 48
62 63 64 65 67 69 69 68 68 68 67 66 65 64 64 62 61 59 55 52 53 53 52 52 51 52 52 51 46 45 47 46 49 50 48 47 43 42
64 64 65 65 65 65 66 68 67 67 66 66 64 64 64 62 57 55 54 53 52 51 51 52 51 51 50 48 45 44 49 52 47 48 49 49 43 37
66 66 64 64 64 64 64 64 64 64 64 64 64 64 63 58 55 55 53 51 48 49 50 49 48 50 48 47 45 45 47 46 46 49 45 48 49 48

GFSNE_sfc_dewp_033.txt.gz
Dewpoint
71 71 68 66 66 64 62 61 59 57 59 60 60 62 63 64 64 62 60 65 65 64 63 63 64 65 65 65 66 66 66 66 66 66 67 66 66 66
72 71 70 68 65 65 63 61 61 58 55 62 60 62 64 62 64 61 61 65 66 65 65 64 64 65 65 65 66 65 65 66 66 66 65 65 65 64
72 71 70 69 64 64 64 64 60 60 56 57 61 61 62 64 64 64 66 65 63 65 65 64 64 64 65 65 65 65 65 65 65 64 63 62 62 62
73 71 71 70 67 67 67 62 61 62 58 55 64 65 62 61 61 61 64 63 63 64 64 64 63 63 64 64 64 64 64 64 62 61 60 59 60 60
73 72 71 70 67 66 67 66 63 62 63 60 63 64 64 65 65 65 64 64 63 66 64 63 63 62 62 61 61 61 61 60 59 58 57 58 59 59
73 73 72 71 69 67 66 65 66 64 64 62 61 61 64 65 63 63 65 67 65 65 64 63 63 63 62 60 60 60 58 57 56 55 55 56 57 57
72 74 73 72 70 68 67 65 63 65 62 62 62 61 60 64 64 64 61 63 65 65 61 59 60 61 61 62 62 62 59 59 57 54 54 54 54 55
73 72 73 72 70 67 66 66 65 60 64 60 60 60 60 60 64 63 62 63 62 65 64 63 60 60 60 60 62 61 60 61 57 55 55 54 54 53
73 73 72 73 71 71 67 66 65 64 61 63 60 59 59 60 62 63 62 62 61 62 63 61 64 62 63 62 61 60 60 60 57 55 54 52 51 51
73 73 73 73 72 72 71 69 68 66 66 62 62 61 62 63 63 64 64 63 64 64 63 58 61 60 60 57 60 60 59 57 55 54 52 50 48 48
73 73 73 73 69 65 72 70 69 68 64 62 62 61 63 64 67 67 65 63 61 63 64 60 61 60 57 56 57 59 57 54 53 52 51 50 48 48
72 72 66 71 65 62 71 71 69 68 67 66 64 63 63 63 64 65 66 63 62 61 63 60 61 59 51 55 55 55 53 53 52 50 50 50 49 47
72 71 71 63 61 60 61 72 70 69 67 67 66 65 64 66 66 67 67 66 63 61 62 61 60 55 48 49 53 51 50 48 48 46 48 47 47 48
73 73 71 60 59 59 60 64 62 63 69 68 67 65 64 64 64 68 68 67 65 62 60 59 54 52 49 48 46 48 49 49 48 47 47 47 47 48
75 71 64 59 56 58 59 61 60 69 71 69 68 67 65 64 65 66 67 67 64 61 57 58 53 52 49 47 46 44 40 42 45 45 47 47 44 48
67 71 69 66 64 65 63 61 65 70 71 71 70 68 67 66 65 66 65 66 63 60 60 59 55 51 50 48 46 43 44 39 44 41 47 44 45 46
66 71 72 73 72 72 69 68 66 67 70 71 72 71 68 66 65 66 65 64 63 60 59 60 58 53 50 48 46 45 44 44 43 44 44 42 42 44
62 69 70 71 72 73 72 72 70 67 68 70 71 71 68 66 66 66 65 63 62 60 60 59 57 53 51 50 49 43 44 43 45 48 45 41 43 43
64 68 68 69 71 72 72 72 72 71 70 69 70 71 68 67 65 64 63 62 60 60 59 56 54 51 48 45 47 51 43 46 45 42 42 45 41 42
60 61 62 62 63 63 64 65 66 69 70 70 70 70 69 67 65 63 61 61 60 59 55 54 53 51 49 47 43 46 46 45 41 40 43 45 44 47
60 59 60 61 61 62 63 64 64 64 65 66 67 69 69 66 63 62 62 58 57 57 54 53 53 53 49 45 40 38 45 47 44 41 43 42 40 39
61 61 61 62 63 63 62 62 63 63 63 65 66 65 64 62 61 61 60 59 58 57 53 51 52 50 47 42 41 39 38 45 48 49 48 46 39 33
60 60 62 62 61 61 60 61 62 61 61 60 60 62 62 61 62 61 60 59 58 53 50 47 46 45 44 43 44 42 39 42 43 40 41 49 49 47

GFSNE_sfc_dewp_036.txt.gz
Dewpoint
69 70 66 64 65 64 61 60 57 56 56 59 59 61 62 63 61 63 60 64 65 64 63 63 63 64 65 65 65 66 66 66 66 65 66 66 64 64
71 69 69 68 65 64 64 60 59 56 54 58 60 61 61 64 63 62 58 64 65 64 63 62 63 64 64 65 66 66 65 65 65 65 65 64 63 62
72 70 69 68 67 64 63 63 60 58 55 55 61 61 62 62 62 63 60 60 60 64 63 63 63 64 64 65 65 65 65 64 64 65 64 63 61 61
72 71 70 70 68 66 63 63 62 60 56 54 56 63 61 62 61 63 61 61 62 63 63 63 62 62 63 63 63 63 62 63 63 62 61 60 59 60
72 72 71 70 69 68 65 64 63 61 60 56 55 63 61 63 61 61 62 62 63 64 63 63 62 62 62 61 61 60 59 60 60 60 59 58 59 59
73 72 72 71 70 69 67 65 64 63 62 61 59 62 62 63 62 59 61 64 61 63 64 63 63 63 62 60 60 60 58 57 56 56 55 56 57 57
72 73 73 72 70 69 68 66 64 63 63 62 60 60 61 63 61 61 60 60 64 65 64 62 61 61 62 62 62 63 59 58 56 55 53 53 54 55
72 72 72 71 70 67 66 66 66 64 62 61 60 60 58 60 63 60 61 61 59 64 64 63 60 60 60 60 61 61 60 58 57 55 53 53 53 53
72 72 72 72 71 72 67 65 65 64 63 62 61 59 59 59 59 62 62 61 60 62 64 61 62 61 61 60 60 60 59 58 57 55 54 53 51 50
73 72 72 72 72 72 72 70 68 68 65 63 61 61 61 60 61 60 61 62 62 62 64 59 61 62 61 61 60 60 59 58 57 55 53 52 49 47
73 73 73 73 68 64 72 72 70 69 66 62 62 60 59 59 60 61 61 62 62 62 63 59 60 60 60 58 57 60 58 57 55 54 53 51 48 46
73 73 66 70 65 62 70 71 71 71 70 69 66 63 60 60 60 61 60 61 60 61 63 59 60 59 56 56 56 59 58 55 53 52 52 50 48 45
72 72 72 63 61 60 61 72 71 71 70 70 69 68 67 65 63 65 64 62 61 60 63 60 60 59 58 53 54 55 55 52 52 50 49 48 47 47
74 74 73 62 58 58 60 63 62 63 72 73 71 69 69 68 68 66 67 68 65 62 64 63 62 61 58 48 50 53 53 50 48 48 46 45 46 47
75 72 64 60 57 58 57 60 60 69 72 72 72 71 69 70 70 67 68 68 68 67 65 65 62 63 58 56 53 50 46 47 49 46 45 46 46 44
64 69 67 64 61 65 65 63 64 68 70 71 72 73 73 71 70 68 67 67 66 66 65 64 63 59 56 56 54 45 42 39 45 44 45 45 43 44
64 69 69 70 71 72 73 73 71 68 67 69 70 71 72 72 70 69 67 66 65 65 62 61 60 60 59 54 52 50 44 42 42 42 43 42 43 42
61 64 66 67 69 70 71 72 72 70 70 70 70 70 70 71 71 69 67 66 65 65 63 60 58 56 55 54 55 50 46 42 42 45 42 40 40 45
61 60 61 62 63 62 63 63 62 64 65 65 66 67 68 69 68 68 67 66 65 65 64 60 58 59 55 52 51 48 44 44 44 46 43 41 41 41
58 57 58 58 59 59 59 59 61 62 62 63 63 64 65 66 65 65 65 66 65 65 63 60 60 59 55 50 44 47 45 44 43 42 42 44 43 48
58 59 59 60 61 61 60 60 60 60 59 61 63 64 63 61 60 61 62 59 61 64 61 58 58 56 53 52 44 42 48 46 43 40 42 42 40 39
58 59 60 60 60 60 60 59 59 59 58 58 58 59 60 59 59 60 59 59 58 57 57 57 56 54 52 49 42 39 41 47 47 48 48 45 41 38
61 62 62 60 60 61 60 60 59 59 58 58 58 58 59 61 60 59 59 58 57 55 55 55 54 52 48 43 42 39 38 42 45 44 44 50 48 48